Time,TemperatureF,DewpointF,PressureIn,WindDirection,WindDirectionDegrees,WindSpeedMPH,WindSpeedGustMPH,Humidity,HourlyPrecipIn,Conditions,Clouds,dailyrainin,SoftwareType,DateUTC
2013-03-14 00:00:00,29.9,16.0,29.85,North,-999,-999.0,-999.0,55,0.00,,,0.00,tws,2013-03-14 04:00:00,
2013-03-14 00:10:00,29.7,16.0,29.85,North,-999,-999.0,-999.0,56,0.00,,,0.00,tws,2013-03-14 04:10:00,
2013-03-14 00:15:00,29.7,16.1,29.85,North,-999,-999.0,-999.0,56,0.00,,,0.00,tws,2013-03-14 04:15:00,
2013-03-14 00:20:00,29.6,16.2,29.85,North,-999,-999.0,-999.0,56,0.00,,,0.00,tws,2013-03-14 04:20:00,
2013-03-14 00:25:00,29.5,15.9,29.85,North,-999,-999.0,-999.0,56,0.00,,,0.00,tws,2013-03-14 04:25:00,
2013-03-14 00:30:00,29.4,15.8,29.86,North,-999,-999.0,-999.0,56,0.00,,,0.00,tws,2013-03-14 04:30:00,
2013-03-14 00:35:00,29.3,16.0,29.86,North,-999,-999.0,-999.0,57,0.00,,,0.00,tws,2013-03-14 04:35:00,
2013-03-14 00:40:00,29.2,15.6,29.86,North,-999,-999.0,-999.0,56,0.00,,,0.00,tws,2013-03-14 04:40:00,
2013-03-14 00:45:00,29.1,15.4,29.86,North,-999,-999.0,-999.0,56,0.00,,,0.00,tws,2013-03-14 04:45:00,
2013-03-14 00:50:00,29.0,15.6,29.86,North,-999,-999.0,-999.0,57,0.00,,,0.00,tws,2013-03-14 04:50:00,
2013-03-14 00:55:00,29.0,15.6,29.86,North,-999,-999.0,-999.0,57,0.00,,,0.00,tws,2013-03-14 04:55:00,
2013-03-14 01:00:00,28.9,15.4,29.86,North,-999,-999.0,-999.0,56,0.00,,,0.00,tws,2013-03-14 05:00:00,
2013-03-14 01:05:00,28.9,15.3,29.86,North,-999,-999.0,-999.0,56,0.00,,,0.00,tws,2013-03-14 05:05:00,
2013-03-14 01:10:00,29.0,15.6,29.86,North,-999,-999.0,-999.0,57,0.00,,,0.00,tws,2013-03-14 05:10:00,
2013-03-14 01:15:00,28.9,15.3,29.86,North,-999,-999.0,-999.0,56,0.00,,,0.00,tws,2013-03-14 05:15:00,
2013-03-14 01:20:00,28.8,15.2,29.86,North,-999,-999.0,-999.0,56,0.00,,,0.00,tws,2013-03-14 05:20:00,
2013-03-14 01:25:00,28.7,15.1,29.86,North,-999,-999.0,-999.0,56,0.00,,,0.00,tws,2013-03-14 05:25:00,
2013-03-14 01:30:00,28.7,15.1,29.86,North,-999,-999.0,-999.0,56,0.00,,,0.00,tws,2013-03-14 05:30:00,
2013-03-14 01:35:00,28.7,15.2,29.86,North,-999,-999.0,-999.0,56,0.00,,,0.00,tws,2013-03-14 05:35:00,
2013-03-14 01:40:00,28.6,15.1,29.86,North,-999,-999.0,-999.0,56,0.00,,,0.00,tws,2013-03-14 05:40:00,
2013-03-14 01:45:00,28.6,15.1,29.86,North,-999,-999.0,-999.0,56,0.00,,,0.00,tws,2013-03-14 05:45:00,
2013-03-14 01:50:00,28.6,15.4,29.86,North,-999,-999.0,-999.0,57,0.00,,,0.00,tws,2013-03-14 05:50:00,
2013-03-14 01:55:00,28.6,15.8,29.86,North,-999,-999.0,-999.0,58,0.00,,,0.00,tws,2013-03-14 05:55:00,
2013-03-14 02:00:00,28.5,15.8,29.86,North,-999,-999.0,-999.0,58,0.00,,,0.00,tws,2013-03-14 06:00:00,
2013-03-14 02:10:00,28.4,16.1,29.86,North,-999,-999.0,-999.0,59,0.00,,,0.00,tws,2013-03-14 06:10:00,
2013-03-14 02:15:00,28.4,16.2,29.86,North,-999,-999.0,-999.0,59,0.00,,,0.00,tws,2013-03-14 06:15:00,
2013-03-14 02:20:00,28.4,16.2,29.86,North,-999,-999.0,-999.0,59,0.00,,,0.00,tws,2013-03-14 06:20:00,
2013-03-14 02:25:00,28.4,16.2,29.86,North,-999,-999.0,-999.0,60,0.00,,,0.00,tws,2013-03-14 06:25:00,
2013-03-14 02:30:00,28.3,16.5,29.86,North,-999,-999.0,-999.0,60,0.00,,,0.00,tws,2013-03-14 06:30:00,
2013-03-14 02:35:00,28.2,16.5,29.86,North,-999,-999.0,-999.0,61,0.00,,,0.00,tws,2013-03-14 06:35:00,
2013-03-14 02:40:00,28.2,16.6,29.87,North,-999,-999.0,-999.0,61,0.00,,,0.00,tws,2013-03-14 06:40:00,
2013-03-14 02:45:00,28.2,16.7,29.87,North,-999,-999.0,-999.0,61,0.00,,,0.00,tws,2013-03-14 06:45:00,
2013-03-14 02:50:00,28.1,16.6,29.86,North,-999,-999.0,-999.0,61,0.00,,,0.00,tws,2013-03-14 06:50:00,
2013-03-14 02:55:00,28.1,16.9,29.87,North,-999,-999.0,-999.0,62,0.00,,,0.00,tws,2013-03-14 06:55:00,
2013-03-14 03:00:00,28.2,17.0,29.87,North,-999,-999.0,-999.0,62,0.00,,,0.00,tws,2013-03-14 07:00:00,
2013-03-14 03:05:00,28.1,16.9,29.87,North,-999,-999.0,-999.0,62,0.00,,,0.00,tws,2013-03-14 07:05:00,
2013-03-14 03:10:00,28.1,17.0,29.87,North,-999,-999.0,-999.0,62,0.00,,,0.00,tws,2013-03-14 07:10:00,
2013-03-14 03:15:00,28.1,17.1,29.87,North,-999,-999.0,-999.0,63,0.00,,,0.00,tws,2013-03-14 07:15:00,
2013-03-14 03:20:00,28.1,17.0,29.87,North,-999,-999.0,-999.0,62,0.00,,,0.00,tws,2013-03-14 07:20:00,
2013-03-14 03:25:00,28.2,17.0,29.87,North,-999,-999.0,-999.0,62,0.00,,,0.00,tws,2013-03-14 07:25:00,
2013-03-14 03:30:00,28.3,17.2,29.87,North,-999,-999.0,-999.0,62,0.00,,,0.00,tws,2013-03-14 07:30:00,
2013-03-14 03:35:00,28.3,17.2,29.87,North,-999,-999.0,-999.0,62,0.00,,,0.00,tws,2013-03-14 07:35:00,
2013-03-14 03:40:00,28.3,17.2,29.87,North,-999,-999.0,-999.0,62,0.00,,,0.00,tws,2013-03-14 07:40:00,
2013-03-14 03:45:00,28.1,16.8,29.87,North,-999,-999.0,-999.0,62,0.00,,,0.00,tws,2013-03-14 07:45:00,
2013-03-14 03:50:00,28.0,16.6,29.87,North,-999,-999.0,-999.0,62,0.00,,,0.00,tws,2013-03-14 07:50:00,
2013-03-14 03:55:00,27.8,16.6,29.87,North,-999,-999.0,-999.0,62,0.00,,,0.00,tws,2013-03-14 07:55:00,
2013-03-14 04:00:00,27.8,16.5,29.87,North,-999,-999.0,-999.0,62,0.00,,,0.00,tws,2013-03-14 08:00:00,
2013-03-14 04:05:00,27.8,16.7,29.87,North,-999,-999.0,-999.0,62,0.00,,,0.00,tws,2013-03-14 08:05:00,
2013-03-14 04:10:00,27.9,16.9,29.87,North,-999,-999.0,-999.0,62,0.00,,,0.00,tws,2013-03-14 08:10:00,
2013-03-14 04:15:00,27.9,16.6,29.87,North,-999,-999.0,-999.0,62,0.00,,,0.00,tws,2013-03-14 08:15:00,
2013-03-14 04:20:00,27.7,16.4,29.87,North,-999,-999.0,-999.0,62,0.00,,,0.00,tws,2013-03-14 08:20:00,
2013-03-14 04:25:00,27.7,16.5,29.87,North,-999,-999.0,-999.0,62,0.00,,,0.00,tws,2013-03-14 08:25:00,
2013-03-14 04:30:00,27.6,16.1,29.88,North,-999,-999.0,-999.0,61,0.00,,,0.00,tws,2013-03-14 08:30:00,
2013-03-14 04:35:00,27.7,16.2,29.88,North,-999,-999.0,-999.0,61,0.00,,,0.00,tws,2013-03-14 08:35:00,
2013-03-14 04:40:00,27.6,16.1,29.88,North,-999,-999.0,-999.0,61,0.00,,,0.00,tws,2013-03-14 08:40:00,
2013-03-14 04:45:00,27.5,16.0,29.87,North,-999,-999.0,-999.0,61,0.00,,,0.00,tws,2013-03-14 08:45:00,
2013-03-14 04:50:00,27.5,15.9,29.87,North,-999,-999.0,-999.0,61,0.00,,,0.00,tws,2013-03-14 08:50:00,
2013-03-14 04:55:00,27.4,15.8,29.88,North,-999,-999.0,-999.0,61,0.00,,,0.00,tws,2013-03-14 08:55:00,
2013-03-14 05:00:00,27.3,15.8,29.88,North,-999,-999.0,-999.0,61,0.00,,,0.00,tws,2013-03-14 09:00:00,
2013-03-14 05:05:00,27.3,15.9,29.88,North,-999,-999.0,-999.0,61,0.00,,,0.00,tws,2013-03-14 09:05:00,
2013-03-14 05:10:00,27.3,16.1,29.88,North,-999,-999.0,-999.0,62,0.00,,,0.00,tws,2013-03-14 09:10:00,
2013-03-14 05:15:00,27.3,16.2,29.88,North,-999,-999.0,-999.0,62,0.00,,,0.00,tws,2013-03-14 09:15:00,
2013-03-14 05:20:00,27.3,16.4,29.88,North,-999,-999.0,-999.0,63,0.00,,,0.00,tws,2013-03-14 09:20:00,
2013-03-14 05:25:00,27.3,16.3,29.88,North,-999,-999.0,-999.0,63,0.00,,,0.00,tws,2013-03-14 09:25:00,
2013-03-14 05:30:00,27.1,16.2,29.88,North,-999,-999.0,-999.0,63,0.00,,,0.00,tws,2013-03-14 09:30:00,
2013-03-14 05:35:00,27.0,16.2,29.89,North,-999,-999.0,-999.0,63,0.00,,,0.00,tws,2013-03-14 09:35:00,
2013-03-14 05:40:00,27.0,16.5,29.89,North,-999,-999.0,-999.0,64,0.00,,,0.00,tws,2013-03-14 09:40:00,
2013-03-14 05:45:00,27.0,16.5,29.89,North,-999,-999.0,-999.0,64,0.00,,,0.00,tws,2013-03-14 09:45:00,
2013-03-14 05:50:00,26.9,19.7,29.89,North,-999,-999.0,-999.0,76,0.00,,,0.00,tws,2013-03-14 09:50:00,
2013-03-14 05:55:00,26.9,16.4,29.89,North,-999,-999.0,-999.0,64,0.00,,,0.00,tws,2013-03-14 09:55:00,
2013-03-14 06:00:00,26.7,16.2,29.89,North,-999,-999.0,-999.0,64,0.00,,,0.00,tws,2013-03-14 10:00:00,
2013-03-14 06:05:00,26.6,16.1,29.89,North,-999,-999.0,-999.0,64,0.00,,,0.00,tws,2013-03-14 10:05:00,
2013-03-14 06:10:00,26.6,16.0,29.89,North,-999,-999.0,-999.0,63,0.00,,,0.00,tws,2013-03-14 10:10:00,
2013-03-14 06:15:00,26.5,15.9,29.90,North,-999,-999.0,-999.0,64,0.00,,,0.00,tws,2013-03-14 10:15:00,
2013-03-14 06:20:00,26.5,16.1,29.90,North,-999,-999.0,-999.0,64,0.00,,,0.00,tws,2013-03-14 10:20:00,
2013-03-14 06:25:00,26.4,16.4,29.90,North,-999,-999.0,-999.0,65,0.00,,,0.00,tws,2013-03-14 10:25:00,
2013-03-14 06:30:00,26.3,16.1,29.90,North,-999,-999.0,-999.0,65,0.00,,,0.00,tws,2013-03-14 10:30:00,
2013-03-14 06:35:00,26.2,16.1,29.90,North,-999,-999.0,-999.0,65,0.00,,,0.00,tws,2013-03-14 10:35:00,
2013-03-14 06:40:00,26.1,16.0,29.90,North,-999,-999.0,-999.0,65,0.00,,,0.00,tws,2013-03-14 10:40:00,
2013-03-14 06:45:00,26.1,15.9,29.90,North,-999,-999.0,-999.0,64,0.00,,,0.00,tws,2013-03-14 10:45:00,
2013-03-14 06:50:00,26.1,16.2,29.90,North,-999,-999.0,-999.0,65,0.00,,,0.00,tws,2013-03-14 10:50:00,
2013-03-14 06:55:00,26.1,15.6,29.91,North,-999,-999.0,-999.0,64,0.00,,,0.00,tws,2013-03-14 10:55:00,
2013-03-14 07:00:00,26.1,15.9,29.91,North,-999,-999.0,-999.0,65,0.00,,,0.00,tws,2013-03-14 11:00:00,
2013-03-14 07:05:00,26.0,15.7,29.91,North,-999,-999.0,-999.0,64,0.00,,,0.00,tws,2013-03-14 11:05:00,
2013-03-14 07:10:00,25.9,15.6,29.91,North,-999,-999.0,-999.0,64,0.00,,,0.00,tws,2013-03-14 11:10:00,
2013-03-14 07:15:00,25.9,15.6,29.91,North,-999,-999.0,-999.0,64,0.00,,,0.00,tws,2013-03-14 11:15:00,
2013-03-14 07:20:00,25.9,15.3,29.91,North,-999,-999.0,-999.0,63,0.00,,,0.00,tws,2013-03-14 11:20:00,
2013-03-14 07:25:00,26.0,15.1,29.92,North,-999,-999.0,-999.0,63,0.00,,,0.00,tws,2013-03-14 11:25:00,
2013-03-14 07:30:00,26.0,15.2,29.92,North,-999,-999.0,-999.0,63,0.00,,,0.00,tws,2013-03-14 11:30:00,
2013-03-14 07:35:00,26.1,15.1,29.92,North,-999,-999.0,-999.0,62,0.00,,,0.00,tws,2013-03-14 11:35:00,
2013-03-14 07:40:00,26.0,14.7,29.92,North,-999,-999.0,-999.0,61,0.00,,,0.00,tws,2013-03-14 11:40:00,
2013-03-14 07:45:00,26.1,14.8,29.92,North,-999,-999.0,-999.0,62,0.00,,,0.00,tws,2013-03-14 11:45:00,
2013-03-14 07:50:00,26.2,15.1,29.92,North,-999,-999.0,-999.0,62,0.00,,,0.00,tws,2013-03-14 11:50:00,
2013-03-14 07:55:00,26.3,15.4,29.92,North,-999,-999.0,-999.0,63,0.00,,,0.00,tws,2013-03-14 11:55:00,
2013-03-14 08:00:00,26.4,15.3,29.92,North,-999,-999.0,-999.0,62,0.00,,,0.00,tws,2013-03-14 12:00:00,
2013-03-14 08:05:00,26.8,15.9,29.92,North,-999,-999.0,-999.0,63,0.00,,,0.00,tws,2013-03-14 12:05:00,
2013-03-14 08:10:00,27.3,16.0,29.93,North,-999,-999.0,-999.0,62,0.00,,,0.00,tws,2013-03-14 12:10:00,
2013-03-14 08:15:00,27.5,15.2,29.93,North,-999,-999.0,-999.0,59,0.00,,,0.00,tws,2013-03-14 12:15:00,
2013-03-14 08:20:00,27.7,15.3,29.92,North,-999,-999.0,-999.0,59,0.00,,,0.00,tws,2013-03-14 12:20:00,
2013-03-14 08:25:00,27.9,15.3,29.93,North,-999,-999.0,-999.0,58,0.00,,,0.00,tws,2013-03-14 12:25:00,
2013-03-14 08:30:00,28.1,15.4,29.93,North,-999,-999.0,-999.0,58,0.00,,,0.00,tws,2013-03-14 12:30:00,
2013-03-14 08:35:00,28.3,16.0,29.93,North,-999,-999.0,-999.0,59,0.00,,,0.00,tws,2013-03-14 12:35:00,
2013-03-14 08:40:00,28.4,15.5,29.93,North,-999,-999.0,-999.0,58,0.00,,,0.00,tws,2013-03-14 12:40:00,
2013-03-14 08:45:00,28.7,15.4,29.93,North,-999,-999.0,-999.0,57,0.00,,,0.00,tws,2013-03-14 12:45:00,
2013-03-14 08:50:00,29.5,14.8,29.93,North,-999,-999.0,-999.0,53,0.00,,,0.00,tws,2013-03-14 12:50:00,
2013-03-14 08:55:00,30.3,15.8,29.93,North,-999,-999.0,-999.0,54,0.00,,,0.00,tws,2013-03-14 12:55:00,
2013-03-14 09:00:00,30.7,15.4,29.93,North,-999,-999.0,-999.0,52,0.00,,,0.00,tws,2013-03-14 13:00:00,
2013-03-14 09:05:00,30.9,15.4,29.93,North,-999,-999.0,-999.0,52,0.00,,,0.00,tws,2013-03-14 13:05:00,
2013-03-14 09:10:00,31.2,16.3,29.93,North,-999,-999.0,-999.0,53,0.00,,,0.00,tws,2013-03-14 13:10:00,
2013-03-14 09:15:00,31.3,15.5,29.93,North,-999,-999.0,-999.0,51,0.00,,,0.00,tws,2013-03-14 13:15:00,
2013-03-14 09:20:00,31.5,15.9,29.93,North,-999,-999.0,-999.0,52,0.00,,,0.00,tws,2013-03-14 13:20:00,
2013-03-14 09:25:00,31.7,16.0,29.93,North,-999,-999.0,-999.0,51,0.00,,,0.00,tws,2013-03-14 13:25:00,
2013-03-14 09:30:00,32.3,16.7,29.93,North,-999,-999.0,-999.0,52,0.00,,,0.00,tws,2013-03-14 13:30:00,
2013-03-14 09:35:00,32.7,16.7,29.94,North,-999,-999.0,-999.0,51,0.00,,,0.00,tws,2013-03-14 13:35:00,
2013-03-14 09:40:00,33.0,18.1,29.93,North,-999,-999.0,-999.0,54,0.00,,,0.00,tws,2013-03-14 13:40:00,
2013-03-14 09:45:00,32.8,18.0,29.93,North,-999,-999.0,-999.0,54,0.00,,,0.00,tws,2013-03-14 13:45:00,
2013-03-14 09:50:00,32.2,17.6,29.93,North,-999,-999.0,-999.0,54,0.00,,,0.00,tws,2013-03-14 13:50:00,
2013-03-14 09:55:00,32.0,17.6,29.94,North,-999,-999.0,-999.0,55,0.00,,,0.00,tws,2013-03-14 13:55:00,
2013-03-14 10:00:00,32.0,17.8,29.94,North,-999,-999.0,-999.0,55,0.00,,,0.00,tws,2013-03-14 14:00:00,
2013-03-14 10:05:00,32.3,18.2,29.94,North,-999,-999.0,-999.0,55,0.00,,,0.00,tws,2013-03-14 14:05:00,
2013-03-14 10:10:00,32.3,18.0,29.95,North,-999,-999.0,-999.0,55,0.00,,,0.00,tws,2013-03-14 14:10:00,
2013-03-14 10:15:00,32.4,18.2,29.95,North,-999,-999.0,-999.0,55,0.00,,,0.00,tws,2013-03-14 14:15:00,
2013-03-14 10:20:00,32.5,17.6,29.94,North,-999,-999.0,-999.0,53,0.00,,,0.00,tws,2013-03-14 14:20:00,
2013-03-14 10:25:00,32.8,17.9,29.95,North,-999,-999.0,-999.0,53,0.00,,,0.00,tws,2013-03-14 14:25:00,
2013-03-14 10:30:00,33.3,18.4,29.94,North,-999,-999.0,-999.0,53,0.00,,,0.00,tws,2013-03-14 14:30:00,
2013-03-14 10:35:00,34.1,19.2,29.94,North,-999,-999.0,-999.0,54,0.00,,,0.00,tws,2013-03-14 14:35:00,
2013-03-14 10:40:00,34.8,19.1,29.94,North,-999,-999.0,-999.0,52,0.00,,,0.00,tws,2013-03-14 14:40:00,
2013-03-14 10:45:00,35.5,19.1,29.94,North,-999,-999.0,-999.0,51,0.00,,,0.00,tws,2013-03-14 14:45:00,
2013-03-14 10:50:00,35.6,18.7,29.94,North,-999,-999.0,-999.0,49,0.00,,,0.00,tws,2013-03-14 14:50:00,
2013-03-14 10:55:00,36.0,19.1,29.94,North,-999,-999.0,-999.0,49,0.00,,,0.00,tws,2013-03-14 14:55:00,
2013-03-14 11:00:00,36.2,18.5,29.94,North,-999,-999.0,-999.0,48,0.00,,,0.00,tws,2013-03-14 15:00:00,
2013-03-14 11:05:00,36.3,18.5,29.94,North,-999,-999.0,-999.0,48,0.00,,,0.00,tws,2013-03-14 15:05:00,
2013-03-14 11:10:00,36.7,19.1,29.94,North,-999,-999.0,-999.0,48,0.00,,,0.00,tws,2013-03-14 15:10:00,
2013-03-14 11:15:00,36.8,17.9,29.94,North,-999,-999.0,-999.0,46,0.00,,,0.00,tws,2013-03-14 15:15:00,
2013-03-14 11:20:00,37.0,18.7,29.95,North,-999,-999.0,-999.0,47,0.00,,,0.00,tws,2013-03-14 15:20:00,
2013-03-14 11:25:00,37.5,18.8,29.95,North,-999,-999.0,-999.0,46,0.00,,,0.00,tws,2013-03-14 15:25:00,
2013-03-14 11:30:00,37.8,19.2,29.94,North,-999,-999.0,-999.0,46,0.00,,,0.00,tws,2013-03-14 15:30:00,
2013-03-14 11:35:00,38.0,19.0,29.95,North,-999,-999.0,-999.0,45,0.00,,,0.00,tws,2013-03-14 15:35:00,
2013-03-14 11:40:00,38.3,18.9,29.95,North,-999,-999.0,-999.0,45,0.00,,,0.00,tws,2013-03-14 15:40:00,
2013-03-14 11:45:00,38.5,18.9,29.95,North,-999,-999.0,-999.0,44,0.00,,,0.00,tws,2013-03-14 15:45:00,
2013-03-14 11:50:00,38.6,19.1,29.95,North,-999,-999.0,-999.0,44,0.00,,,0.00,tws,2013-03-14 15:50:00,
2013-03-14 11:55:00,38.7,18.7,29.95,North,-999,-999.0,-999.0,44,0.00,,,0.00,tws,2013-03-14 15:55:00,
2013-03-14 12:00:00,39.3,19.4,29.94,North,-999,-999.0,-999.0,44,0.00,,,0.00,tws,2013-03-14 16:00:00,
2013-03-14 12:05:00,39.5,18.5,29.94,North,-999,-999.0,-999.0,42,0.00,,,0.00,tws,2013-03-14 16:05:00,
2013-03-14 12:15:00,39.7,18.0,29.95,North,-999,-999.0,-999.0,41,0.00,,,0.00,tws,2013-03-14 16:15:00,
2013-03-14 12:25:00,39.6,18.7,29.95,North,-999,-999.0,-999.0,42,0.00,,,0.00,tws,2013-03-14 16:25:00,
2013-03-14 12:30:00,40.1,18.7,29.95,North,-999,-999.0,-999.0,41,0.00,,,0.00,tws,2013-03-14 16:30:00,
2013-03-14 12:35:00,40.4,18.1,29.95,North,-999,-999.0,-999.0,40,0.00,,,0.00,tws,2013-03-14 16:35:00,
2013-03-14 12:45:00,40.6,17.8,29.95,North,-999,-999.0,-999.0,39,0.00,,,0.00,tws,2013-03-14 16:45:00,
2013-03-14 12:50:00,40.2,17.7,29.95,North,-999,-999.0,-999.0,39,0.00,,,0.00,tws,2013-03-14 16:50:00,
2013-03-14 12:55:00,40.7,18.9,29.95,North,-999,-999.0,-999.0,41,0.00,,,0.00,tws,2013-03-14 16:55:00,
2013-03-14 13:00:00,41.4,18.8,29.95,North,-999,-999.0,-999.0,39,0.00,,,0.00,tws,2013-03-14 17:00:00,
2013-03-14 13:05:00,41.9,19.2,29.95,North,-999,-999.0,-999.0,39,0.00,,,0.00,tws,2013-03-14 17:05:00,
2013-03-14 13:10:00,41.6,18.2,29.95,North,-999,-999.0,-999.0,38,0.00,,,0.00,tws,2013-03-14 17:10:00,
2013-03-14 13:15:00,41.3,18.0,29.95,North,-999,-999.0,-999.0,38,0.00,,,0.00,tws,2013-03-14 17:15:00,
2013-03-14 13:20:00,41.6,19.1,29.94,North,-999,-999.0,-999.0,40,0.00,,,0.00,tws,2013-03-14 17:20:00,
2013-03-14 13:25:00,41.8,18.5,29.95,North,-999,-999.0,-999.0,38,0.00,,,0.00,tws,2013-03-14 17:25:00,
2013-03-14 13:30:00,42.1,19.3,29.94,North,-999,-999.0,-999.0,39,0.00,,,0.00,tws,2013-03-14 17:30:00,
2013-03-14 13:40:00,41.9,18.0,29.94,North,-999,-999.0,-999.0,37,0.00,,,0.00,tws,2013-03-14 17:40:00,
2013-03-14 13:45:00,42.5,19.0,29.94,North,-999,-999.0,-999.0,38,0.00,,,0.00,tws,2013-03-14 17:45:00,
2013-03-14 13:55:00,44.1,20.3,29.93,North,-999,-999.0,-999.0,38,0.00,,,0.00,tws,2013-03-14 17:55:00,
2013-03-14 14:00:00,44.9,20.6,29.93,North,-999,-999.0,-999.0,37,0.00,,,0.00,tws,2013-03-14 18:00:00,
2013-03-14 14:05:00,45.5,20.8,29.93,North,-999,-999.0,-999.0,37,0.00,,,0.00,tws,2013-03-14 18:05:00,
2013-03-14 14:10:00,45.6,20.3,29.92,North,-999,-999.0,-999.0,36,0.00,,,0.00,tws,2013-03-14 18:10:00,
2013-03-14 14:15:00,46.0,21.1,29.92,North,-999,-999.0,-999.0,36,0.00,,,0.00,tws,2013-03-14 18:15:00,
2013-03-14 14:20:00,46.2,20.0,29.92,North,-999,-999.0,-999.0,34,0.00,,,0.00,tws,2013-03-14 18:20:00,
2013-03-14 14:25:00,46.0,20.1,29.92,North,-999,-999.0,-999.0,35,0.00,,,0.00,tws,2013-03-14 18:25:00,
2013-03-14 14:30:00,46.3,20.3,29.91,North,-999,-999.0,-999.0,35,0.00,,,0.00,tws,2013-03-14 18:30:00,
2013-03-14 14:35:00,46.1,18.9,29.91,North,-999,-999.0,-999.0,33,0.00,,,0.00,tws,2013-03-14 18:35:00,
2013-03-14 14:40:00,45.7,19.0,29.90,North,-999,-999.0,-999.0,34,0.00,,,0.00,tws,2013-03-14 18:40:00,
2013-03-14 14:45:00,45.5,18.6,29.90,North,-999,-999.0,-999.0,33,0.00,,,0.00,tws,2013-03-14 18:45:00,
2013-03-14 14:50:00,45.4,18.9,29.90,North,-999,-999.0,-999.0,34,0.00,,,0.00,tws,2013-03-14 18:50:00,
2013-03-14 14:55:00,45.4,18.6,29.90,North,-999,-999.0,-999.0,33,0.00,,,0.00,tws,2013-03-14 18:55:00,
2013-03-14 15:00:00,45.5,19.1,29.90,North,-999,-999.0,-999.0,34,0.00,,,0.00,tws,2013-03-14 19:00:00,
2013-03-14 15:05:00,45.4,18.0,29.89,North,-999,-999.0,-999.0,33,0.00,,,0.00,tws,2013-03-14 19:05:00,
2013-03-14 15:10:00,45.5,18.9,29.89,North,-999,-999.0,-999.0,34,0.00,,,0.00,tws,2013-03-14 19:10:00,
2013-03-14 15:15:00,46.0,18.4,29.89,North,-999,-999.0,-999.0,32,0.00,,,0.00,tws,2013-03-14 19:15:00,
2013-03-14 15:20:00,46.1,18.3,29.89,North,-999,-999.0,-999.0,32,0.00,,,0.00,tws,2013-03-14 19:20:00,
2013-03-14 15:25:00,46.1,18.5,29.89,North,-999,-999.0,-999.0,32,0.00,,,0.00,tws,2013-03-14 19:25:00,
2013-03-14 15:30:00,46.7,19.5,29.89,North,-999,-999.0,-999.0,33,0.00,,,0.00,tws,2013-03-14 19:30:00,
2013-03-14 15:35:00,47.5,19.5,29.89,North,-999,-999.0,-999.0,32,0.00,,,0.00,tws,2013-03-14 19:35:00,
2013-03-14 15:40:00,47.4,18.2,29.89,North,-999,-999.0,-999.0,30,0.00,,,0.00,tws,2013-03-14 19:40:00,
2013-03-14 15:45:00,46.7,17.9,29.89,North,-999,-999.0,-999.0,31,0.00,,,0.00,tws,2013-03-14 19:45:00,
2013-03-14 15:50:00,46.4,17.5,29.89,North,-999,-999.0,-999.0,31,0.00,,,0.00,tws,2013-03-14 19:50:00,
2013-03-14 15:55:00,45.7,17.1,29.89,North,-999,-999.0,-999.0,31,0.00,,,0.00,tws,2013-03-14 19:55:00,
2013-03-14 16:00:00,45.6,17.4,29.89,North,-999,-999.0,-999.0,32,0.00,,,0.00,tws,2013-03-14 20:00:00,
2013-03-14 16:05:00,46.0,17.3,29.89,North,-999,-999.0,-999.0,31,0.00,,,0.00,tws,2013-03-14 20:05:00,
2013-03-14 16:10:00,46.0,16.6,29.89,North,-999,-999.0,-999.0,30,0.00,,,0.00,tws,2013-03-14 20:10:00,
2013-03-14 16:15:00,46.0,16.7,29.89,North,-999,-999.0,-999.0,30,0.00,,,0.00,tws,2013-03-14 20:15:00,
2013-03-14 16:20:00,46.6,16.9,29.89,North,-999,-999.0,-999.0,30,0.00,,,0.00,tws,2013-03-14 20:20:00,
2013-03-14 16:25:00,47.3,16.6,29.88,North,-999,-999.0,-999.0,29,0.00,,,0.00,tws,2013-03-14 20:25:00,
2013-03-14 16:30:00,47.5,16.9,29.89,North,-999,-999.0,-999.0,29,0.00,,,0.00,tws,2013-03-14 20:30:00,
2013-03-14 16:35:00,47.1,16.3,29.89,North,-999,-999.0,-999.0,28,0.00,,,0.00,tws,2013-03-14 20:35:00,
2013-03-14 16:40:00,46.8,16.5,29.89,North,-999,-999.0,-999.0,29,0.00,,,0.00,tws,2013-03-14 20:40:00,
2013-03-14 16:45:00,46.6,16.2,29.89,North,-999,-999.0,-999.0,29,0.00,,,0.00,tws,2013-03-14 20:45:00,
2013-03-14 16:50:00,46.5,16.3,29.89,North,-999,-999.0,-999.0,29,0.00,,,0.00,tws,2013-03-14 20:50:00,
2013-03-14 16:55:00,46.4,16.3,29.88,North,-999,-999.0,-999.0,29,0.00,,,0.00,tws,2013-03-14 20:55:00,
2013-03-14 17:00:00,46.0,15.6,29.89,North,-999,-999.0,-999.0,29,0.00,,,0.00,tws,2013-03-14 21:00:00,
2013-03-14 17:05:00,45.9,15.2,29.89,North,-999,-999.0,-999.0,28,0.00,,,0.00,tws,2013-03-14 21:05:00,
2013-03-14 17:10:00,45.5,14.7,29.89,North,-999,-999.0,-999.0,28,0.00,,,0.00,tws,2013-03-14 21:10:00,
2013-03-14 17:15:00,45.3,14.2,29.89,North,-999,-999.0,-999.0,28,0.00,,,0.00,tws,2013-03-14 21:15:00,
2013-03-14 17:20:00,45.4,14.4,29.89,North,-999,-999.0,-999.0,28,0.00,,,0.00,tws,2013-03-14 21:20:00,
2013-03-14 17:30:00,45.3,14.0,29.89,North,-999,-999.0,-999.0,28,0.00,,,0.00,tws,2013-03-14 21:30:00,
2013-03-14 17:35:00,45.3,14.9,29.88,North,-999,-999.0,-999.0,29,0.00,,,0.00,tws,2013-03-14 21:35:00,
2013-03-14 17:45:00,44.8,14.8,29.88,North,-999,-999.0,-999.0,29,0.00,,,0.00,tws,2013-03-14 21:45:00,
2013-03-14 17:50:00,44.9,15.1,29.88,North,-999,-999.0,-999.0,29,0.00,,,0.00,tws,2013-03-14 21:50:00,
2013-03-14 17:55:00,45.1,15.0,29.87,North,-999,-999.0,-999.0,29,0.00,,,0.00,tws,2013-03-14 21:55:00,
2013-03-14 18:00:00,44.9,14.9,29.87,North,-999,-999.0,-999.0,29,0.00,,,0.00,tws,2013-03-14 22:00:00,
2013-03-14 18:10:00,45.1,15.1,29.87,North,-999,-999.0,-999.0,29,0.00,,,0.00,tws,2013-03-14 22:10:00,
2013-03-14 18:15:00,45.0,15.2,29.87,North,-999,-999.0,-999.0,29,0.00,,,0.00,tws,2013-03-14 22:15:00,
2013-03-14 18:20:00,44.6,14.6,29.87,North,-999,-999.0,-999.0,29,0.00,,,0.00,tws,2013-03-14 22:20:00,
2013-03-14 18:25:00,44.3,14.4,29.87,North,-999,-999.0,-999.0,29,0.00,,,0.00,tws,2013-03-14 22:25:00,
2013-03-14 18:30:00,44.2,15.2,29.87,North,-999,-999.0,-999.0,30,0.00,,,0.00,tws,2013-03-14 22:30:00,
2013-03-14 18:35:00,44.1,14.8,29.87,North,-999,-999.0,-999.0,30,0.00,,,0.00,tws,2013-03-14 22:35:00,
2013-03-14 18:40:00,44.1,14.4,29.87,North,-999,-999.0,-999.0,29,0.00,,,0.00,tws,2013-03-14 22:40:00,
2013-03-14 18:45:00,43.9,14.8,29.87,North,-999,-999.0,-999.0,30,0.00,,,0.00,tws,2013-03-14 22:45:00,
2013-03-14 18:50:00,43.5,13.9,29.87,North,-999,-999.0,-999.0,29,0.00,,,0.00,tws,2013-03-14 22:50:00,
2013-03-14 18:55:00,43.0,13.7,29.87,North,-999,-999.0,-999.0,30,0.00,,,0.00,tws,2013-03-14 22:55:00,
2013-03-14 19:00:00,42.7,13.8,29.87,North,-999,-999.0,-999.0,30,0.00,,,0.00,tws,2013-03-14 23:00:00,
2013-03-14 19:05:00,42.3,13.5,29.87,North,-999,-999.0,-999.0,30,0.00,,,0.00,tws,2013-03-14 23:05:00,
2013-03-14 19:10:00,41.9,13.8,29.88,North,-999,-999.0,-999.0,31,0.00,,,0.00,tws,2013-03-14 23:10:00,
2013-03-14 19:15:00,41.5,13.9,29.88,North,-999,-999.0,-999.0,32,0.00,,,0.00,tws,2013-03-14 23:15:00,
2013-03-14 19:20:00,41.2,14.2,29.88,North,-999,-999.0,-999.0,33,0.00,,,0.00,tws,2013-03-14 23:20:00,
2013-03-14 19:25:00,40.8,13.9,29.89,North,-999,-999.0,-999.0,33,0.00,,,0.00,tws,2013-03-14 23:25:00,
2013-03-14 19:30:00,40.5,13.1,29.89,North,-999,-999.0,-999.0,32,0.00,,,0.00,tws,2013-03-14 23:30:00,
2013-03-14 19:35:00,40.3,13.7,29.89,North,-999,-999.0,-999.0,33,0.00,,,0.00,tws,2013-03-14 23:35:00,
2013-03-14 19:40:00,40.1,14.0,29.89,North,-999,-999.0,-999.0,34,0.00,,,0.00,tws,2013-03-14 23:40:00,
2013-03-14 19:45:00,39.7,14.3,29.88,North,-999,-999.0,-999.0,35,0.00,,,0.00,tws,2013-03-14 23:45:00,
2013-03-14 19:50:00,39.4,13.8,29.88,North,-999,-999.0,-999.0,34,0.00,,,0.00,tws,2013-03-14 23:50:00,
2013-03-14 19:55:00,39.1,13.9,29.88,North,-999,-999.0,-999.0,35,0.00,,,0.00,tws,2013-03-14 23:55:00,
2013-03-14 20:00:00,38.8,14.2,29.88,North,-999,-999.0,-999.0,36,0.00,,,0.00,tws,2013-03-15 00:00:00,
2013-03-14 20:05:00,38.6,14.1,29.89,North,-999,-999.0,-999.0,36,0.00,,,0.00,tws,2013-03-15 00:05:00,
2013-03-14 20:10:00,38.4,14.0,29.88,North,-999,-999.0,-999.0,36,0.00,,,0.00,tws,2013-03-15 00:10:00,
2013-03-14 20:15:00,38.3,14.4,29.88,North,-999,-999.0,-999.0,37,0.00,,,0.00,tws,2013-03-15 00:15:00,
2013-03-14 20:20:00,38.1,14.9,29.88,North,-999,-999.0,-999.0,38,0.00,,,0.00,tws,2013-03-15 00:20:00,
2013-03-14 20:25:00,38.0,14.0,29.88,North,-999,-999.0,-999.0,37,0.00,,,0.00,tws,2013-03-15 00:25:00,
2013-03-14 20:30:00,37.9,14.3,29.87,North,-999,-999.0,-999.0,37,0.00,,,0.00,tws,2013-03-15 00:30:00,
2013-03-14 20:35:00,37.8,14.3,29.88,North,-999,-999.0,-999.0,37,0.00,,,0.00,tws,2013-03-15 00:35:00,
2013-03-14 20:40:00,37.6,14.6,29.88,North,-999,-999.0,-999.0,38,0.00,,,0.00,tws,2013-03-15 00:40:00,
2013-03-14 20:45:00,37.5,14.4,29.88,North,-999,-999.0,-999.0,38,0.00,,,0.00,tws,2013-03-15 00:45:00,
2013-03-14 20:50:00,37.3,15.0,29.89,North,-999,-999.0,-999.0,39,0.00,,,0.00,tws,2013-03-15 00:50:00,
2013-03-14 20:55:00,37.0,15.1,29.89,North,-999,-999.0,-999.0,40,0.00,,,0.00,tws,2013-03-15 00:55:00,
2013-03-14 21:00:00,36.8,14.5,29.89,North,-999,-999.0,-999.0,39,0.00,,,0.00,tws,2013-03-15 01:00:00,
2013-03-14 21:05:00,36.7,14.3,29.89,North,-999,-999.0,-999.0,39,0.00,,,0.00,tws,2013-03-15 01:05:00,
2013-03-14 21:10:00,36.7,14.4,29.89,North,-999,-999.0,-999.0,39,0.00,,,0.00,tws,2013-03-15 01:10:00,
2013-03-14 21:15:00,36.6,14.5,29.89,North,-999,-999.0,-999.0,40,0.00,,,0.00,tws,2013-03-15 01:15:00,
2013-03-14 21:20:00,36.7,14.2,29.89,North,-999,-999.0,-999.0,39,0.00,,,0.00,tws,2013-03-15 01:20:00,
2013-03-14 21:25:00,36.8,13.7,29.89,North,-999,-999.0,-999.0,38,0.00,,,0.00,tws,2013-03-15 01:25:00,
2013-03-14 21:30:00,36.8,14.4,29.89,North,-999,-999.0,-999.0,39,0.00,,,0.00,tws,2013-03-15 01:30:00,
2013-03-14 21:35:00,36.7,14.1,29.89,North,-999,-999.0,-999.0,39,0.00,,,0.00,tws,2013-03-15 01:35:00,
2013-03-14 21:40:00,36.6,14.5,29.89,North,-999,-999.0,-999.0,39,0.00,,,0.00,tws,2013-03-15 01:40:00,
2013-03-14 21:45:00,36.6,14.6,29.89,North,-999,-999.0,-999.0,40,0.00,,,0.00,tws,2013-03-15 01:45:00,
2013-03-14 21:55:00,36.5,14.8,29.88,North,-999,-999.0,-999.0,40,0.00,,,0.00,tws,2013-03-15 01:55:00,
2013-03-14 22:00:00,36.3,14.9,29.89,North,-999,-999.0,-999.0,41,0.00,,,0.00,tws,2013-03-15 02:00:00,
2013-03-14 22:05:00,36.3,14.8,29.89,North,-999,-999.0,-999.0,41,0.00,,,0.00,tws,2013-03-15 02:05:00,
2013-03-14 22:10:00,36.2,14.5,29.89,North,-999,-999.0,-999.0,40,0.00,,,0.00,tws,2013-03-15 02:10:00,
2013-03-14 22:15:00,36.1,15.0,29.89,North,-999,-999.0,-999.0,41,0.00,,,0.00,tws,2013-03-15 02:15:00,
2013-03-14 22:20:00,35.9,15.2,29.89,North,-999,-999.0,-999.0,42,0.00,,,0.00,tws,2013-03-15 02:20:00,
2013-03-14 22:25:00,35.7,15.6,29.89,North,-999,-999.0,-999.0,43,0.00,,,0.00,tws,2013-03-15 02:25:00,
2013-03-14 22:30:00,35.8,14.8,29.89,North,-999,-999.0,-999.0,41,0.00,,,0.00,tws,2013-03-15 02:30:00,
2013-03-14 22:35:00,35.9,14.8,29.89,North,-999,-999.0,-999.0,41,0.00,,,0.00,tws,2013-03-15 02:35:00,
2013-03-14 22:40:00,35.8,15.5,29.89,North,-999,-999.0,-999.0,43,0.00,,,0.00,tws,2013-03-15 02:40:00,
2013-03-14 22:45:00,35.8,16.1,29.89,North,-999,-999.0,-999.0,44,0.00,,,0.00,tws,2013-03-15 02:45:00,
2013-03-14 22:50:00,35.6,15.6,29.89,North,-999,-999.0,-999.0,43,0.00,,,0.00,tws,2013-03-15 02:50:00,
2013-03-14 22:55:00,35.5,16.0,29.89,North,-999,-999.0,-999.0,44,0.00,,,0.00,tws,2013-03-15 02:55:00,
2013-03-14 23:00:00,35.5,16.1,29.89,North,-999,-999.0,-999.0,44,0.00,,,0.00,tws,2013-03-15 03:00:00,
2013-03-14 23:05:00,35.5,16.2,29.90,North,-999,-999.0,-999.0,45,0.00,,,0.00,tws,2013-03-15 03:05:00,
2013-03-14 23:10:00,35.4,16.6,29.90,North,-999,-999.0,-999.0,46,0.00,,,0.00,tws,2013-03-15 03:10:00,
2013-03-14 23:15:00,35.3,16.9,29.89,North,-999,-999.0,-999.0,46,0.00,,,0.00,tws,2013-03-15 03:15:00,
2013-03-14 23:20:00,35.1,16.8,29.89,North,-999,-999.0,-999.0,47,0.00,,,0.00,tws,2013-03-15 03:20:00,
2013-03-14 23:25:00,35.0,17.2,29.89,North,-999,-999.0,-999.0,47,0.00,,,0.00,tws,2013-03-15 03:25:00,
2013-03-14 23:30:00,34.9,17.2,29.89,North,-999,-999.0,-999.0,48,0.00,,,0.00,tws,2013-03-15 03:30:00,
2013-03-14 23:35:00,35.0,17.2,29.89,North,-999,-999.0,-999.0,47,0.00,,,0.00,tws,2013-03-15 03:35:00,
2013-03-14 23:40:00,35.0,18.1,29.89,North,-999,-999.0,-999.0,49,0.00,,,0.00,tws,2013-03-15 03:40:00,
2013-03-14 23:45:00,34.8,18.2,29.89,North,-999,-999.0,-999.0,50,0.00,,,0.00,tws,2013-03-15 03:45:00,
2013-03-14 23:50:00,34.6,18.0,29.89,North,-999,-999.0,-999.0,50,0.00,,,0.00,tws,2013-03-15 03:50:00,
2013-03-14 23:55:00,34.5,18.3,29.89,North,-999,-999.0,-999.0,51,0.00,,,0.00,tws,2013-03-15 03:55:00,